Weather Roundup
Issued by NWS Chicago, IL

Home | Current Version | Previous Version | Graphics & Text | Print | Product List | Glossary On
Versions: 1 2 3 4 5 6 7 8 9 10 11 12 13 14 15 16 17 18 19 20 21 22 23 24 25 26 27 28 29 30 31 32 33 34 35 36 37 38 39 40 41 42 43 44 45 46 47 48 49 50
000
NZUS59 KLOT 040508
HRRLOT

CHICAGO AREA WEATHER ROUNDUP
NATIONAL WEATHER SERVICE CHICAGO/ROMEOVILLE IL
1200 AM CDT WED MAY 04 2016

NOTE: "FAIR" INDICATES FEW OR NO CLOUDS BELOW 12,000 FEET WITH NO
SIGNIFICANT WEATHER AND/OR OBSTRUCTIONS TO VISIBILITY.

* THESE STATIONS ARE NOT UNDER NWS QUALITY CONTROL. THEY ALSO MAY NOT
  REPORT WEATHER SUCH AS PRECIPITATION OR FOG.

ILZ005-006-012>014-019>023-040600-
NORTHEAST ILLINOIS

CITY           SKY/WX    TMP DP  RH WIND       PRES   REMARKS
OHARE          LGT RAIN  58  41  53 SW13      29.65F
MIDWAY         CLOUDY    61  39  44 SW13      29.67F
AURORA         LGT RAIN  57  45  64 SW17G23   29.68F
LANSING*       CLOUDY    56  40  54 SW10      29.70F
JOLIET*        CLOUDY    59  42  53 SW14G21   29.71S
WAUKEGAN       CLOUDY    57  43  59 SW13      29.62F
DUPAGE AIRPORT CLOUDY    57  40  52 SW16      29.66F
WHEELING       CLOUDY    58  42  55 SW9       29.65F
KANKAKEE*      CLOUDY    55  42  61 SW10      29.73F
MORRIS*        LGT RAIN  58  40  51 SW9       29.69F
LEWIS AIRPORT* CLOUDY    57  40  53 SW16G23   29.69F
$$

WIZ051-052-058>065-066-070>072-040600-
SOUTHEAST WISCONSIN

CITY           SKY/WX    TMP DP  RH WIND       PRES   REMARKS
MILWAUKEE      LGT RAIN  52  47  83 N15       29.66R
KENOSHA*       CLOUDY    59  42  53 SW13      29.62F
RACINE*        RAIN      58  43  57 W13G21    29.65S
BURLINGTON     LGT RAIN  50  45  81 N14G23    29.68R
WAUKESHA       RAIN      46  45  93 N6        29.68S
WEST BEND      LGT RAIN  48  46  93 N5        29.65F
$$

INZ001>003-010>013-019-020-040600-
NORTHWEST INDIANA

CITY           SKY/WX    TMP DP  RH WIND       PRES   REMARKS
GARY*          CLOUDY    60  47  61 SW5       29.69F
MICHIGAN CITY* NOT AVBL
RENSSELAER*    NOT AVBL
VALPARAISO     CLOUDY    55  42  61 SW8       29.71F
$$

LMZ740>746-040600-
SOUTHERN LAKE MICHIGAN

STATION/POSITION TIME  SKY/WX   TEMP WIND        PRES    VSBY
                                AIR  DIR/SP/G
                 (UTC)          (F)  (DEG/KT/KT) (MB)    (MI)
HARRISON CRIB    0400            62  220/ 18/ 21   N/A
BURNHAM HARBOR   0500            61  190/  8/ 10   N/A
CALUMET HARBOR   0400            60  200/  7/ 12 1005.5F
BURNS HARBOR     0401            60  210/ 10/ 15 1006.8F
MICHIGAN CITY    0400            59  180/ 12/ 13   N/A
$$

ABBREVIATIONS USED IN REMARKS
   TC - TEMPERATURE IN CELSIUS
  WCI - WIND CHILL INDEX
   HX - HEAT INDEX
  VSB - VISIBILITY
$$




USA.gov is the U.S. government's official web portal to all federal, state and local government web resources and services.